QPF
0.00 0.00 0.00 0.00 0.00 0.00 0.00 0.01 0.00 0.00 0.00 0.00 0.00 0.01 0.01 0.01 0.01 0.01 0.01 0.02 0.02 0.03 0.03 0.02 0.04 0.04 0.05 0.06 0.07 0.06 0.07 0.09 0.11 0.14 0.20 0.18 0.17 0.19 0.19 0.17 0.16 0.14 0.15
0.01 0.00 0.00 0.00 0.00 0.00 0.00 0.00 0.01 0.00 0.00 0.00 0.00 0.01 0.01 0.01 0.02 0.02 0.02 0.02 0.03 0.04 0.03 0.03 0.03 0.03 0.04 0.05 0.05 0.06 0.08 0.08 0.09 0.12 0.17 0.12 0.10 0.14 0.14 0.13 0.14 0.16 0.18
0.01 0.01 0.01 0.01 0.01 0.00 0.00 0.00 0.00 0.00 0.00 0.01 0.01 0.01 0.01 0.01 0.02 0.03 0.03 0.03 0.03 0.04 0.04 0.04 0.03 0.04 0.04 0.05 0.05 0.06 0.07 0.07 0.08 0.11 0.14 0.12 0.09 0.09 0.11 0.12 0.13 0.16 0.18
0.01 0.02 0.02 0.02 0.01 0.01 0.00 0.00 0.00 0.00 0.00 0.00 0.01 0.01 0.02 0.02 0.02 0.03 0.03 0.03 0.02 0.04 0.06 0.06 0.05 0.04 0.04 0.04 0.05 0.06 0.06 0.08 0.07 0.08 0.10 0.10 0.08 0.06 0.05 0.07 0.08 0.10 0.12
0.02 0.02 0.02 0.02 0.01 0.01 0.00 0.00 0.00 0.00 0.00 0.00 0.01 0.02 0.02 0.03 0.03 0.03 0.03 0.03 0.03 0.03 0.04 0.05 0.06 0.06 0.05 0.05 0.05 0.05 0.05 0.06 0.05 0.06 0.08 0.09 0.08 0.07 0.07 0.05 0.06 0.07 0.08
0.02 0.02 0.02 0.03 0.02 0.01 0.01 0.01 0.01 0.01 0.01 0.01 0.01 0.02 0.03 0.04 0.04 0.02 0.02 0.03 0.03 0.03 0.03 0.03 0.04 0.04 0.05 0.06 0.05 0.05 0.04 0.05 0.05 0.06 0.07 0.07 0.08 0.10 0.10 0.09 0.08 0.06 0.06
0.02 0.03 0.03 0.06 0.08 0.08 0.05 0.04 0.04 0.04 0.06 0.03 0.02 0.04 0.04 0.04 0.04 0.03 0.02 0.03 0.03 0.04 0.05 0.02 0.03 0.04 0.04 0.05 0.04 0.05 0.04 0.04 0.05 0.06 0.05 0.06 0.06 0.08 0.10 0.09 0.09 0.07 0.06
0.03 0.05 0.05 0.07 0.08 0.11 0.11 0.08 0.06 0.04 0.04 0.03 0.04 0.06 0.05 0.05 0.04 0.04 0.03 0.03 0.03 0.03 0.03 0.02 0.03 0.03 0.03 0.04 0.03 0.03 0.03 0.04 0.05 0.05 0.05 0.06 0.06 0.06 0.08 0.09 0.09 0.07 0.05
0.04 0.05 0.09 0.12 0.11 0.13 0.10 0.08 0.08 0.07 0.06 0.06 0.05 0.05 0.05 0.02 0.03 0.04 0.03 0.03 0.03 0.02 0.02 0.02 0.02 0.02 0.02 0.02 0.02 0.02 0.04 0.03 0.03 0.04 0.05 0.05 0.05 0.05 0.06 0.07 0.08 0.08 0.07
0.04 0.03 0.04 0.08 0.08 0.08 0.10 0.10 0.09 0.08 0.07 0.07 0.06 0.05 0.03 0.03 0.02 0.02 0.03 0.03 0.03 0.02 0.02 0.02 0.02 0.01 0.01 0.02 0.03 0.03 0.04 0.06 0.05 0.05 0.06 0.06 0.06 0.06 0.06 0.08 0.08 0.09 0.08
0.02 0.03 0.09 0.16 0.11 0.07 0.07 0.08 0.08 0.06 0.04 0.04 0.05 0.04 0.04 0.03 0.03 0.04 0.03 0.03 0.02 0.02 0.02 0.02 0.02 0.01 0.02 0.03 0.04 0.04 0.04 0.05 0.06 0.05 0.04 0.05 0.06 0.08 0.08 0.08 0.08 0.10 0.10
0.02 0.02 0.05 0.11 0.10 0.08 0.08 0.07 0.06 0.05 0.03 0.03 0.03 0.02 0.02 0.03 0.04 0.04 0.03 0.02 0.02 0.02 0.01 0.02 0.02 0.02 0.02 0.03 0.03 0.03 0.03 0.04 0.04 0.05 0.05 0.05 0.07 0.08 0.09 0.08 0.08 0.09 0.10
0.02 0.02 0.03 0.06 0.08 0.05 0.06 0.06 0.05 0.03 0.01 0.01 0.01 0.02 0.02 0.03 0.03 0.02 0.02 0.02 0.02 0.02 0.01 0.01 0.01 0.01 0.01 0.02 0.03 0.04 0.03 0.02 0.03 0.03 0.03 0.05 0.07 0.08 0.08 0.06 0.06 0.07 0.08
0.01 0.01 0.02 0.03 0.03 0.03 0.02 0.03 0.02 0.01 0.01 0.01 0.01 0.02 0.03 0.03 0.02 0.01 0.01 0.01 0.01 0.02 0.01 0.01 0.01 0.01 0.01 0.01 0.02 0.03 0.03 0.02 0.02 0.03 0.02 0.03 0.04 0.05 0.06 0.05 0.05 0.08 0.07
0.01 0.01 0.01 0.02 0.02 0.02 0.01 0.01 0.01 0.01 0.02 0.01 0.02 0.03 0.03 0.02 0.01 0.01 0.01 0.01 0.01 0.01 0.01 0.01 0.02 0.01 0.01 0.01 0.03 0.04 0.04 0.03 0.02 0.02 0.02 0.02 0.03 0.04 0.04 0.04 0.04 0.05 0.05
0.01 0.01 0.02 0.05 0.08 0.04 0.02 0.01 0.01 0.02 0.04 0.02 0.02 0.02 0.02 0.01 0.01 0.01 0.02 0.02 0.01 0.01 0.01 0.02 0.02 0.01 0.01 0.02 0.03 0.04 0.03 0.03 0.03 0.03 0.02 0.02 0.02 0.02 0.03 0.04 0.05 0.06 0.06
0.01 0.02 0.03 0.04 0.09 0.08 0.04 0.02 0.01 0.02 0.04 0.02 0.02 0.02 0.01 0.01 0.01 0.02 0.02 0.02 0.01 0.01 0.01 0.01 0.01 0.01 0.02 0.04 0.04 0.02 0.03 0.03 0.03 0.02 0.02 0.02 0.01 0.01 0.02 0.03 0.05 0.05 0.05
0.03 0.09 0.11 0.09 0.06 0.05 0.03 0.02 0.02 0.02 0.02 0.02 0.02 0.02 0.01 0.01 0.01 0.02 0.02 0.02 0.02 0.02 0.01 0.01 0.01 0.01 0.02 0.03 0.02 0.01 0.01 0.02 0.01 0.02 0.02 0.03 0.02 0.02 0.02 0.02 0.02 0.02 0.03
0.04 0.09 0.05 0.03 0.02 0.02 0.01 0.02 0.02 0.03 0.02 0.02 0.02 0.02 0.01 0.01 0.01 0.02 0.02 0.02 0.03 0.03 0.02 0.02 0.01 0.01 0.02 0.02 0.02 0.01 0.02 0.02 0.02 0.01 0.01 0.01 0.01 0.02 0.02 0.03 0.03 0.02 0.03
0.03 0.05 0.03 0.02 0.02 0.03 0.02 0.02 0.02 0.03 0.03 0.03 0.03 0.03 0.03 0.03 0.03 0.02 0.02 0.03 0.04 0.04 0.03 0.03 0.03 0.03 0.02 0.03 0.03 0.03 0.02 0.03 0.02 0.02 0.02 0.01 0.01 0.00 0.01 0.01 0.02 0.03 0.03
0.02 0.02 0.04 0.04 0.03 0.07 0.05 0.03 0.03 0.03 0.03 0.03 0.04 0.06 0.05 0.05 0.05 0.04 0.04 0.04 0.04 0.04 0.03 0.03 0.04 0.05 0.05 0.06 0.06 0.05 0.03 0.03 0.03 0.03 0.03 0.02 0.01 0.01 0.01 0.01 0.02 0.02 0.02
0.01 0.02 0.02 0.04 0.06 0.10 0.10 0.06 0.05 0.05 0.06 0.09 0.12 0.12 0.12 0.11 0.10 0.08 0.06 0.04 0.04 0.04 0.04 0.04 0.05 0.05 0.06 0.08 0.08 0.08 0.06 0.05 0.05 0.04 0.04 0.02 0.01 0.02 0.02 0.02 0.01 0.02 0.02
0.01 0.02 0.02 0.03 0.08 0.12 0.16 0.11 0.08 0.08 0.11 0.13 0.17 0.17 0.14 0.13 0.13 0.10 0.06 0.05 0.05 0.05 0.04 0.05 0.06 0.05 0.06 0.08 0.09 0.09 0.08 0.07 0.06 0.04 0.04 0.03 0.02 0.02 0.01 0.02 0.02 0.02 0.02
0.01 0.02 0.04 0.02 0.04 0.08 0.14 0.13 0.09 0.07 0.09 0.11 0.11 0.11 0.11 0.10 0.13 0.13 0.07 0.06 0.07 0.07 0.07 0.07 0.07 0.05 0.05 0.06 0.07 0.09 0.10 0.10 0.08 0.06 0.05 0.04 0.03 0.02 0.01 0.01 0.01 0.01 0.02
0.02 0.02 0.03 0.03 0.04 0.05 0.04 0.06 0.09 0.09 0.06 0.05 0.07 0.11 0.12 0.10 0.06 0.05 0.05 0.05 0.05 0.05 0.05 0.07 0.07 0.06 0.04 0.05 0.05 0.05 0.06 0.06 0.07 0.07 0.06 0.05 0.03 0.02 0.01 0.01 0.01 0.01 0.01
0.01 0.01 0.02 0.03 0.04 0.04 0.04 0.05 0.05 0.06 0.05 0.04 0.05 0.06 0.06 0.06 0.05 0.05 0.04 0.04 0.04 0.04 0.04 0.04 0.05 0.05 0.05 0.05 0.05 0.04 0.04 0.05 0.04 0.04 0.04 0.04 0.04 0.03 0.02 0.01 0.01 0.01 0.01
MSLP
1009.87 1010.00 1010.09 1010.11 1010.07 1009.97 1009.85 1009.76 1009.76 1009.85 1010.05 1010.33 1010.65 1010.96 1011.22 1011.39 1011.45 1011.43 1011.36 1011.28 1011.23 1011.24 1011.33 1011.50 1011.73 1011.99 1012.26 1012.52 1012.76 1012.98 1013.20 1013.43 1013.69 1013.99 1014.33 1014.68 1015.04 1015.36 1015.64 1015.84 1015.95 1015.99 1015.97
1009.92 1010.09 1010.20 1010.23 1010.17 1010.04 1009.90 1009.81 1009.83 1009.97 1010.25 1010.62 1011.04 1011.43 1011.73 1011.92 1011.96 1011.89 1011.75 1011.59 1011.47 1011.42 1011.47 1011.62 1011.83 1012.08 1012.33 1012.57 1012.77 1012.96 1013.15 1013.38 1013.65 1013.99 1014.40 1014.84 1015.30 1015.73 1016.09 1016.36 1016.51 1016.55 1016.51
1009.81 1010.05 1010.22 1010.29 1010.24 1010.11 1009.96 1009.87 1009.90 1010.08 1010.41 1010.86 1011.35 1011.82 1012.19 1012.40 1012.46 1012.37 1012.20 1012.00 1011.83 1011.75 1011.77 1011.89 1012.09 1012.32 1012.54 1012.73 1012.89 1013.03 1013.17 1013.36 1013.62 1013.98 1014.43 1014.94 1015.49 1016.01 1016.46 1016.80 1017.01 1017.09 1017.07
1009.49 1009.84 1010.11 1010.26 1010.27 1010.17 1010.04 1009.95 1009.99 1010.19 1010.55 1011.05 1011.60 1012.13 1012.56 1012.82 1012.91 1012.85 1012.68 1012.47 1012.29 1012.20 1012.20 1012.31 1012.48 1012.68 1012.87 1013.01 1013.11 1013.18 1013.26 1013.40 1013.62 1013.96 1014.42 1014.96 1015.56 1016.15 1016.68 1017.10 1017.39 1017.54 1017.57
1008.98 1009.46 1009.87 1010.14 1010.25 1010.22 1010.13 1010.06 1010.10 1010.30 1010.68 1011.20 1011.80 1012.37 1012.85 1013.18 1013.31 1013.29 1013.15 1012.97 1012.80 1012.71 1012.71 1012.81 1012.96 1013.13 1013.28 1013.37 1013.41 1013.42 1013.43 1013.49 1013.66 1013.95 1014.38 1014.92 1015.53 1016.16 1016.74 1017.24 1017.61 1017.85 1017.96
1008.33 1008.95 1009.52 1009.94 1010.17 1010.24 1010.21 1010.17 1010.22 1010.43 1010.81 1011.33 1011.94 1012.55 1013.08 1013.45 1013.65 1013.68 1013.59 1013.44 1013.31 1013.23 1013.23 1013.32 1013.45 1013.60 1013.71 1013.76 1013.76 1013.70 1013.65 1013.65 1013.74 1013.97 1014.34 1014.84 1015.42 1016.05 1016.67 1017.21 1017.66 1017.99 1018.21
1007.59 1008.35 1009.08 1009.66 1010.03 1010.22 1010.27 1010.28 1010.35 1010.55 1010.92 1011.44 1012.05 1012.67 1013.23 1013.65 1013.90 1013.99 1013.96 1013.86 1013.75 1013.69 1013.70 1013.78 1013.90 1014.03 1014.12 1014.15 1014.11 1014.02 1013.92 1013.86 1013.89 1014.05 1014.34 1014.77 1015.30 1015.89 1016.50 1017.07 1017.58 1017.99 1018.32
1006.84 1007.73 1008.60 1009.32 1009.84 1010.14 1010.28 1010.35 1010.45 1010.66 1011.02 1011.52 1012.12 1012.75 1013.33 1013.79 1014.09 1014.23 1014.25 1014.19 1014.12 1014.07 1014.08 1014.16 1014.27 1014.38 1014.47 1014.49 1014.45 1014.36 1014.24 1014.15 1014.13 1014.21 1014.43 1014.77 1015.22 1015.75 1016.32 1016.89 1017.42 1017.90 1018.31
1006.14 1007.12 1008.11 1008.95 1009.59 1010.00 1010.23 1010.36 1010.50 1010.72 1011.07 1011.57 1012.16 1012.79 1013.38 1013.86 1014.20 1014.39 1014.46 1014.44 1014.39 1014.36 1014.38 1014.44 1014.55 1014.67 1014.76 1014.80 1014.79 1014.71 1014.61 1014.52 1014.47 1014.50 1014.64 1014.89 1015.25 1015.69 1016.20 1016.73 1017.26 1017.78 1018.25
1005.53 1006.57 1007.62 1008.55 1009.28 1009.77 1010.08 1010.28 1010.46 1010.71 1011.08 1011.57 1012.16 1012.79 1013.39 1013.89 1014.27 1014.49 1014.60 1014.61 1014.59 1014.58 1014.60 1014.67 1014.78 1014.91 1015.02 1015.10 1015.13 1015.10 1015.04 1014.97 1014.92 1014.92 1015.00 1015.17 1015.43 1015.78 1016.20 1016.67 1017.17 1017.69 1018.20
1005.02 1006.07 1007.15 1008.11 1008.88 1009.44 1009.81 1010.08 1010.32 1010.62 1011.02 1011.53 1012.13 1012.76 1013.37 1013.89 1014.29 1014.56 1014.70 1014.75 1014.75 1014.76 1014.79 1014.87 1015.00 1015.15 1015.29 1015.42 1015.50 1015.53 1015.53 1015.50 1015.47 1015.46 1015.51 1015.61 1015.79 1016.04 1016.37 1016.76 1017.21 1017.69 1018.20
1004.58 1005.61 1006.66 1007.61 1008.39 1008.99 1009.42 1009.76 1010.08 1010.44 1010.89 1011.44 1012.06 1012.71 1013.33 1013.87 1014.29 1014.59 1014.77 1014.86 1014.90 1014.94 1015.00 1015.10 1015.24 1015.41 1015.60 1015.77 1015.91 1016.00 1016.06 1016.08 1016.09 1016.09 1016.11 1016.17 1016.28 1016.45 1016.69 1017.00 1017.38 1017.80 1018.27
1004.19 1005.15 1006.14 1007.04 1007.80 1008.41 1008.90 1009.31 1009.72 1010.16 1010.69 1011.29 1011.94 1012.62 1013.26 1013.82 1014.27 1014.60 1014.82 1014.96 1015.04 1015.12 1015.22 1015.35 1015.52 1015.72 1015.94 1016.15 1016.33 1016.48 1016.60 1016.67 1016.71 1016.73 1016.75 1016.79 1016.85 1016.96 1017.12 1017.35 1017.65 1018.01 1018.42
1003.77 1004.65 1005.54 1006.36 1007.09 1007.72 1008.26 1008.75 1009.26 1009.80 1010.41 1011.07 1011.77 1012.48 1013.14 1013.72 1014.19 1014.56 1014.83 1015.02 1015.16 1015.30 1015.44 1015.61 1015.82 1016.04 1016.28 1016.52 1016.74 1016.93 1017.08 1017.20 1017.27 1017.32 1017.35 1017.38 1017.42 1017.48 1017.59 1017.75 1017.98 1018.27 1018.62
1003.29 1004.06 1004.84 1005.58 1006.27 1006.91 1007.50 1008.09 1008.70 1009.35 1010.05 1010.79 1011.54 1012.27 1012.95 1013.54 1014.04 1014.44 1014.76 1015.01 1015.22 1015.42 1015.63 1015.85 1016.08 1016.34 1016.59 1016.84 1017.08 1017.29 1017.46 1017.60 1017.71 1017.78 1017.84 1017.87 1017.91 1017.95 1018.03 1018.14 1018.31 1018.54 1018.82
1002.71 1003.36 1004.03 1004.70 1005.36 1006.01 1006.67 1007.35 1008.07 1008.82 1009.61 1010.42 1011.21 1011.97 1012.65 1013.26 1013.78 1014.21 1014.58 1014.89 1015.18 1015.45 1015.72 1015.99 1016.27 1016.54 1016.81 1017.06 1017.29 1017.50 1017.68 1017.84 1017.97 1018.07 1018.16 1018.22 1018.27 1018.32 1018.38 1018.47 1018.60 1018.77 1018.99
1002.00 1002.55 1003.13 1003.73 1004.37 1005.05 1005.78 1006.55 1007.37 1008.23 1009.10 1009.96 1010.79 1011.55 1012.25 1012.85 1013.39 1013.85 1014.26 1014.64 1014.99 1015.34 1015.67 1016.00 1016.31 1016.61 1016.88 1017.13 1017.35 1017.56 1017.74 1017.91 1018.05 1018.19 1018.30 1018.40 1018.48 1018.55 1018.62 1018.71 1018.81 1018.94 1019.11
1001.19 1001.65 1002.16 1002.73 1003.37 1004.08 1004.87 1005.73 1006.64 1007.58 1008.51 1009.41 1010.25 1011.02 1011.71 1012.32 1012.86 1013.35 1013.80 1014.24 1014.66 1015.07 1015.48 1015.86 1016.21 1016.53 1016.81 1017.05 1017.26 1017.46 1017.64 1017.82 1017.99 1018.15 1018.31 1018.45 1018.57 1018.68 1018.77 1018.85 1018.94 1019.05 1019.17
1000.32 1000.73 1001.19 1001.75 1002.40 1003.14 1003.99 1004.91 1005.89 1006.88 1007.85 1008.77 1009.62 1010.38 1011.06 1011.67 1012.21 1012.73 1013.22 1013.71 1014.20 1014.68 1015.15 1015.58 1015.97 1016.31 1016.60 1016.85 1017.06 1017.26 1017.45 1017.64 1017.84 1018.04 1018.24 1018.42 1018.59 1018.73 1018.84 1018.93 1019.02 1019.10 1019.19
999.47 999.85 1000.30 1000.84 1001.51 1002.28 1003.17 1004.13 1005.14 1006.16 1007.15 1008.07 1008.91 1009.66 1010.33 1010.94 1011.50 1012.04 1012.58 1013.12 1013.67 1014.21 1014.73 1015.21 1015.64 1016.00 1016.31 1016.58 1016.80 1017.01 1017.22 1017.44 1017.67 1017.92 1018.16 1018.39 1018.59 1018.76 1018.89 1018.99 1019.06 1019.12 1019.17
998.73 999.08 999.53 1000.08 1000.75 1001.54 1002.43 1003.41 1004.42 1005.44 1006.41 1007.32 1008.15 1008.89 1009.56 1010.18 1010.76 1011.34 1011.92 1012.52 1013.12 1013.71 1014.28 1014.80 1015.26 1015.66 1016.00 1016.28 1016.54 1016.78 1017.02 1017.27 1017.55 1017.83 1018.11 1018.38 1018.62 1018.81 1018.95 1019.04 1019.10 1019.13 1019.15
998.15 998.50 998.94 999.48 1000.14 1000.92 1001.80 1002.75 1003.74 1004.72 1005.67 1006.55 1007.36 1008.10 1008.78 1009.42 1010.04 1010.66 1011.30 1011.94 1012.59 1013.23 1013.84 1014.40 1014.89 1015.32 1015.68 1016.00 1016.29 1016.57 1016.85 1017.15 1017.47 1017.79 1018.11 1018.41 1018.67 1018.87 1019.01 1019.10 1019.13 1019.14 1019.12
997.80 998.13 998.55 999.07 999.71 1000.45 1001.27 1002.17 1003.10 1004.03 1004.93 1005.79 1006.58 1007.33 1008.03 1008.70 1009.37 1010.04 1010.73 1011.42 1012.11 1012.79 1013.42 1014.01 1014.52 1014.98 1015.37 1015.72 1016.05 1016.37 1016.70 1017.04 1017.40 1017.76 1018.11 1018.43 1018.71 1018.91 1019.05 1019.12 1019.14 1019.12 1019.07
997.67 997.98 998.37 998.85 999.43 1000.10 1000.85 1001.66 1002.51 1003.37 1004.21 1005.03 1005.82 1006.57 1007.30 1008.02 1008.74 1009.46 1010.20 1010.94 1011.66 1012.36 1013.01 1013.61 1014.14 1014.60 1015.02 1015.40 1015.76 1016.12 1016.49 1016.87 1017.26 1017.66 1018.04 1018.37 1018.65 1018.87 1019.00 1019.07 1019.07 1019.03 1018.97
997.77 998.03 998.37 998.78 999.28 999.86 1000.51 1001.22 1001.97 1002.75 1003.53 1004.31 1005.07 1005.84 1006.60 1007.36 1008.13 1008.90 1009.68 1010.45 1011.19 1011.90 1012.56 1013.15 1013.68 1014.15 1014.57 1014.96 1015.35 1015.73 1016.13 1016.54 1016.96 1017.38 1017.77 1018.12 1018.41 1018.63 1018.78 1018.85 1018.86 1018.83 1018.78
998.03 998.24 998.51 998.84 999.24 999.72 1000.25 1000.85 1001.49 1002.17 1002.88 1003.61 1004.36 1005.12 1005.90 1006.70 1007.50 1008.31 1009.12 1009.90 1010.65 1011.35 1011.99 1012.57 1013.08 1013.54 1013.96 1014.35 1014.74 1015.13 1015.54 1015.96 1016.39 1016.82 1017.22 1017.59 1017.89 1018.13 1018.30 1018.41 1018.45 1018.46 1018.45
Thickness
5814 5815 5813 5810 5806 5802 5798 5794 5789 5787 5784 5780 5776 5772 5769 5768 5767 5766 5765 5764 5763 5761 5760 5759 5757 5756 5754 5753 5752 5750 5748 5747 5748 5744 5741 5742 5744 5744 5744 5744 5744 5743 5741
5812 5813 5811 5809 5806 5802 5799 5795 5791 5788 5786 5782 5779 5775 5772 5769 5768 5767 5766 5764 5763 5761 5760 5758 5757 5755 5754 5752 5751 5749 5746 5745 5746 5742 5735 5731 5734 5738 5742 5742 5742 5741 5740
5814 5813 5810 5808 5806 5803 5800 5798 5793 5790 5787 5784 5780 5776 5772 5769 5766 5765 5764 5764 5763 5762 5761 5758 5757 5755 5754 5751 5750 5749 5746 5743 5744 5744 5737 5730 5726 5730 5735 5738 5739 5738 5738
5819 5816 5813 5809 5808 5806 5804 5801 5796 5792 5788 5785 5780 5774 5769 5764 5764 5765 5764 5764 5764 5762 5761 5758 5757 5755 5754 5752 5751 5750 5748 5745 5741 5742 5742 5740 5736 5728 5725 5730 5734 5735 5735
5823 5820 5817 5814 5812 5810 5806 5802 5797 5793 5790 5786 5782 5776 5771 5768 5767 5766 5765 5764 5763 5763 5762 5760 5758 5756 5754 5753 5751 5750 5748 5746 5744 5741 5740 5738 5736 5734 5726 5722 5726 5729 5731
5826 5823 5821 5817 5812 5810 5807 5802 5797 5793 5791 5787 5783 5778 5773 5769 5766 5765 5763 5762 5762 5762 5761 5760 5759 5757 5755 5753 5752 5750 5749 5747 5746 5744 5742 5739 5735 5732 5729 5724 5722 5722 5725
5824 5821 5818 5814 5811 5809 5805 5802 5797 5793 5791 5787 5783 5779 5775 5771 5768 5766 5763 5762 5760 5760 5760 5760 5758 5756 5755 5754 5752 5750 5749 5748 5746 5744 5742 5741 5739 5737 5732 5727 5722 5720 5721
5823 5821 5820 5817 5814 5810 5806 5803 5798 5793 5791 5787 5783 5780 5777 5773 5770 5768 5766 5763 5761 5761 5761 5759 5758 5757 5755 5754 5752 5750 5748 5747 5745 5744 5742 5740 5739 5738 5734 5729 5724 5718 5716
5823 5821 5820 5818 5814 5811 5808 5805 5799 5794 5791 5787 5783 5780 5777 5775 5771 5769 5767 5765 5763 5762 5761 5759 5758 5756 5755 5753 5751 5748 5746 5745 5744 5742 5741 5739 5738 5737 5735 5732 5728 5720 5712
5824 5821 5820 5818 5816 5813 5809 5806 5802 5797 5792 5788 5784 5782 5779 5776 5773 5770 5767 5764 5763 5761 5760 5758 5757 5755 5753 5751 5749 5746 5745 5743 5741 5740 5738 5737 5736 5735 5733 5731 5728 5724 5717
5822 5820 5819 5818 5815 5811 5808 5805 5801 5796 5791 5788 5785 5782 5779 5776 5773 5769 5767 5765 5763 5760 5758 5756 5754 5752 5750 5748 5745 5743 5742 5739 5737 5736 5735 5733 5733 5731 5730 5728 5725 5722 5718
5820 5819 5816 5814 5811 5807 5805 5802 5799 5796 5792 5789 5785 5781 5778 5775 5771 5768 5766 5764 5761 5759 5757 5754 5752 5750 5747 5745 5742 5740 5738 5736 5733 5732 5731 5729 5730 5727 5725 5723 5720 5717 5714
5817 5815 5813 5810 5808 5806 5803 5800 5798 5795 5793 5789 5784 5779 5776 5773 5770 5768 5765 5762 5759 5757 5754 5751 5748 5746 5744 5741 5739 5737 5735 5732 5730 5728 5726 5724 5723 5721 5720 5718 5715 5712 5710
5811 5810 5808 5807 5806 5804 5801 5799 5797 5795 5791 5787 5782 5777 5774 5772 5769 5767 5764 5761 5757 5754 5751 5748 5745 5743 5741 5738 5735 5733 5731 5728 5726 5724 5722 5721 5719 5716 5715 5713 5710 5707 5703
5804 5804 5804 5802 5801 5800 5798 5797 5795 5792 5789 5784 5779 5775 5773 5770 5767 5764 5761 5758 5755 5751 5748 5744 5742 5740 5737 5734 5731 5729 5727 5723 5721 5719 5718 5716 5715 5713 5712 5709 5705 5702 5697
5801 5801 5801 5799 5796 5795 5793 5793 5791 5789 5786 5781 5777 5774 5771 5767 5764 5761 5758 5754 5751 5747 5744 5740 5738 5735 5733 5730 5727 5725 5721 5718 5715 5712 5711 5710 5708 5707 5706 5704 5702 5698 5693
5799 5798 5796 5796 5794 5793 5791 5790 5788 5786 5782 5778 5775 5771 5768 5764 5761 5758 5754 5750 5746 5743 5739 5736 5733 5730 5728 5725 5723 5720 5717 5713 5709 5707 5704 5703 5702 5700 5699 5697 5695 5691 5689
5794 5794 5794 5793 5791 5791 5789 5787 5784 5781 5777 5774 5771 5768 5764 5760 5757 5754 5750 5746 5743 5739 5736 5732 5728 5725 5723 5721 5719 5716 5712 5708 5705 5702 5699 5696 5693 5693 5691 5689 5686 5683 5680
5792 5791 5792 5791 5789 5786 5785 5782 5777 5774 5771 5768 5766 5763 5760 5756 5752 5749 5745 5742 5739 5734 5730 5727 5724 5720 5718 5716 5714 5711 5706 5702 5699 5696 5693 5690 5687 5686 5684 5681 5677 5674 5672
5785 5784 5785 5785 5782 5781 5780 5775 5770 5767 5764 5764 5762 5759 5755 5751 5747 5744 5741 5737 5734 5729 5726 5722 5719 5716 5713 5710 5708 5706 5701 5696 5692 5689 5686 5684 5681 5679 5677 5674 5671 5667 5664
5778 5778 5777 5775 5775 5774 5772 5766 5762 5760 5760 5759 5756 5752 5749 5746 5742 5738 5735 5732 5728 5723 5719 5716 5713 5710 5707 5704 5702 5699 5695 5691 5686 5682 5678 5676 5674 5672 5671 5668 5665 5661 5658
5769 5770 5768 5766 5766 5766 5762 5757 5754 5755 5754 5752 5748 5745 5742 5740 5735 5730 5727 5724 5721 5716 5712 5709 5705 5703 5701 5698 5695 5692 5690 5686 5681 5676 5672 5670 5667 5665 5663 5661 5658 5655 5652
5761 5762 5760 5758 5758 5758 5755 5749 5749 5748 5746 5743 5740 5737 5735 5733 5728 5723 5719 5715 5712 5709 5705 5702 5699 5695 5693 5691 5688 5685 5682 5679 5675 5671 5667 5664 5661 5658 5655 5653 5651 5648 5644
5752 5752 5750 5749 5747 5747 5747 5745 5742 5741 5738 5735 5731 5728 5725 5723 5720 5716 5713 5709 5705 5702 5699 5696 5693 5689 5686 5684 5682 5678 5674 5670 5667 5663 5660 5657 5654 5650 5647 5644 5641 5639 5636
5743 5743 5742 5741 5739 5738 5738 5738 5736 5733 5729 5726 5724 5720 5717 5714 5712 5708 5704 5702 5700 5698 5695 5692 5689 5684 5680 5679 5677 5673 5668 5664 5661 5656 5652 5648 5644 5640 5637 5634 5632 5630 5627
5735 5734 5734 5733 5732 5732 5730 5730 5729 5727 5722 5718 5715 5713 5709 5706 5702 5699 5694 5692 5691 5689 5688 5687 5684 5681 5679 5675 5671 5667 5663 5659 5654 5650 5644 5640 5636 5633 5629 5626 5623 5621 5618